Home   Weather   Oxnard   Past weeks

Flag for USA Past Weather in Oxnard, California, USA — Yesterday and Last 2 Weeks

Now
53 °F

Rain. Fog.


Feels Like: 52 °F
Forecast: 52 / 60 °F
Wind: 5 mph from Northeast

Location: Oxnard Airport

Current Time: Jan 19, 2017 at 2:57:37 am

Latest Report: Jan 19, 2017 at 1:51 am


Visibility: 2 mi

Pressure: 30.00 "Hg

Humidity: 89%

Dew Point: 50 °F

Location of OxnardLocation

Past Weather in Oxnard — Graph

°F

Oxnard Temperature Yesterday

Maximum temperature yesterday: 59 °F (at 10:51 am)
Minimum temperature yesterday: 46 °F (at 4:51 am)
Average temperature yesterday: 53 °F

High & Low Weather Summary for the Past Weeks

 TemperatureHumidityPressure
High72 °F (Jan 8, 11:51 am)96% (Jan 5, 5:14 am)30.22 "Hg (Jan 5, 5:14 am)
Low43 °F (Jan 17, 5:51 am)27% (Jan 17, 10:51 am)29.90 "Hg (Jan 12, 1:51 pm)
Average56 °F77%30.06 "Hg
* Reported Jan 4 1:51 am — Jan 19 1:30 am, Oxnard, Weather by CustomWeather, © 2017

Note: Actual official high and low records may vary slightly from our data, if they occured in-between our weather recording intervals... More about our weather records

Advertising

Oxnard Weather History for the Previous 24 Hours

Scroll right to see more
 ConditionsComfort  
Time TempWeatherWind HumidityBarometerVisibility
1:30 am
Thu, Jan 19
53 °FHeavy rain. Fog.7 mph89%30.00 "Hg1 mi
1:00 am53 °FHeavy rain. Fog.7 mph86%30.01 "Hg1 mi
12:24 am54 °FRain. Overcast.6 mph83%30.02 "Hg2 mi
12:03 am54 °FLight rain. Overcast.6 mph83%30.02 "Hg6 mi
10:51 pm
Wed, Jan 18
54 °FMostly cloudy.7 mph83%30.03 "Hg8 mi
10:18 pm54 °FMostly cloudy.7 mph83%30.05 "Hg6 mi
9:51 pm55 °FOvercast.5 mph80%30.06 "Hg6 mi
8:51 pm55 °FOvercast.8 mph80%30.06 "Hg9 mi
7:51 pm54 °FPassing clouds.9 mph86%30.05 "Hg7 mi
6:51 pm55 °FLight rain. Overcast.8 mph83%30.07 "Hg6 mi
5:51 pm55 °FRain. Mostly cloudy.5 mph83%30.11 "Hg4 mi
4:51 pm56 °FOvercast.5 mph77%30.13 "Hg7 mi
3:51 pm58 °FOvercast.6 mph70%30.13 "Hg8 mi
2:51 pm59 °FPartly sunny.6 mph62%30.13 "Hg10 mi
2:02 pm59 °FMostly cloudy.8 mph62%30.14 "Hg10 mi
1:51 pm59 °FOvercast.7 mph62%30.13 "Hg10 mi
12:51 pm59 °FOvercast.7 mph62%30.13 "Hg10 mi
11:51 am59 °FPartly sunny.6 mph64%30.15 "Hg8 mi
10:51 am59 °FPartly sunny.No wind60%30.17 "Hg7 mi
9:51 am55 °FOvercast.6 mph55%30.19 "Hg9 mi
8:51 am51 °FOvercast.7 mph59%30.19 "Hg10 mi
7:51 am48 °FOvercast.6 mph66%30.19 "Hg9 mi
6:51 am46 °FPassing clouds.3 mph68%30.18 "Hg10 mi
5:51 am46 °FClear.No wind63%30.15 "Hg10 mi
4:51 am46 °FClear.7 mph66%30.14 "Hg10 mi
3:51 am47 °FClear.7 mph66%30.14 "Hg10 mi
2:51 am49 °FClear.6 mph64%30.15 "Hg10 mi
Weather by CustomWeather, © 2017

See weather overviewHow to use our weather pages